Year,Month,Day,Hour,Minute,Value (Times are PST for temperature in C)
2022,07,01,00,00,14.20
2022,07,01,00,01,14.10
2022,07,01,00,02,14.10
2022,07,01,00,03,14.10
2022,07,01,00,04,14.10
2022,07,01,00,05,14.10
2022,07,01,00,06,14.10
2022,07,01,00,07,14.10
2022,07,01,00,08,14.10
2022,07,01,00,09,14.10
2022,07,01,00,10,14.10
2022,07,01,00,11,14.10
2022,07,01,00,12,14.10
2022,07,01,00,13,14.10
2022,07,01,00,14,14.20
2022,07,01,00,15,14.20
2022,07,01,00,16,14.20
2022,07,01,00,17,14.10
2022,07,01,00,18,14.10
2022,07,01,00,19,14.10
2022,07,01,00,20,14.10
2022,07,01,00,21,14.10
2022,07,01,00,22,14.10
2022,07,01,00,23,14.10
2022,07,01,00,24,14.10
2022,07,01,00,25,14.00
2022,07,01,00,26,14.00
2022,07,01,00,27,14.00
2022,07,01,00,28,14.00
2022,07,01,00,29,14.00
2022,07,01,00,30,14.00
2022,07,01,00,31,14.00
2022,07,01,00,32,14.00
2022,07,01,00,33,14.00
2022,07,01,00,34,14.00
2022,07,01,00,35,14.10
2022,07,01,00,36,14.00
2022,07,01,00,37,14.10
2022,07,01,00,38,14.00
2022,07,01,00,39,14.00
2022,07,01,00,40,14.00
2022,07,01,00,41,14.00
2022,07,01,00,42,14.00
2022,07,01,00,43,14.00
2022,07,01,00,44,14.00
2022,07,01,00,45,13.90
2022,07,01,00,46,13.90
2022,07,01,00,47,13.90
2022,07,01,00,48,13.90
2022,07,01,00,49,13.80
2022,07,01,00,50,13.80
2022,07,01,00,51,13.80
2022,07,01,00,52,13.80
2022,07,01,00,53,13.80
2022,07,01,00,54,13.80
2022,07,01,00,55,13.70
2022,07,01,00,56,13.70
2022,07,01,00,57,13.70
2022,07,01,00,58,13.70
2022,07,01,00,59,13.70
2022,07,01,01,00,13.70
2022,07,01,01,01,13.70
2022,07,01,01,02,13.70
2022,07,01,01,03,13.70
2022,07,01,01,04,13.70
2022,07,01,01,05,13.70
2022,07,01,01,06,13.70
2022,07,01,01,07,13.70
2022,07,01,01,08,13.70
2022,07,01,01,09,13.70
2022,07,01,01,10,13.70
2022,07,01,01,11,13.70
2022,07,01,01,12,13.70
2022,07,01,01,13,13.80
2022,07,01,01,14,13.80
2022,07,01,01,15,13.80
2022,07,01,01,16,13.80
2022,07,01,01,17,13.80
2022,07,01,01,18,13.80
2022,07,01,01,19,13.80
2022,07,01,01,20,13.80
2022,07,01,01,21,13.80
2022,07,01,01,22,13.80
2022,07,01,01,23,13.80
2022,07,01,01,24,13.80
2022,07,01,01,25,13.80
2022,07,01,01,26,13.80
2022,07,01,01,27,13.70
2022,07,01,01,28,13.70
2022,07,01,01,29,13.70
2022,07,01,01,30,13.60
2022,07,01,01,31,13.60
2022,07,01,01,32,13.60
2022,07,01,01,33,13.70
2022,07,01,01,34,13.70
2022,07,01,01,35,13.60
2022,07,01,01,36,13.60
2022,07,01,01,37,13.60
2022,07,01,01,38,13.60
2022,07,01,01,39,13.60
2022,07,01,01,40,13.50
2022,07,01,01,41,13.50
2022,07,01,01,42,13.50
2022,07,01,01,43,13.50
2022,07,01,01,44,13.50
2022,07,01,01,45,13.50
2022,07,01,01,46,13.40
2022,07,01,01,47,13.40
2022,07,01,01,48,13.40
2022,07,01,01,49,13.40
2022,07,01,01,50,13.40
2022,07,01,01,51,13.40
2022,07,01,01,52,13.40
2022,07,01,01,53,13.40
2022,07,01,01,54,13.40
2022,07,01,01,55,13.40
2022,07,01,01,56,13.40
2022,07,01,01,57,13.40
2022,07,01,01,58,13.40
2022,07,01,01,59,13.40
2022,07,01,02,00,13.40
2022,07,01,02,01,13.40
2022,07,01,02,02,13.40
2022,07,01,02,03,13.30
2022,07,01,02,04,13.30
2022,07,01,02,05,13.40
2022,07,01,02,06,13.40
2022,07,01,02,07,13.30
2022,07,01,02,08,13.30
2022,07,01,02,09,13.30
2022,07,01,02,10,13.30
2022,07,01,02,11,13.30
2022,07,01,02,12,13.30
2022,07,01,02,13,13.30
2022,07,01,02,14,13.20
2022,07,01,02,15,13.20
2022,07,01,02,16,13.20
2022,07,01,02,17,13.20
2022,07,01,02,18,13.20
2022,07,01,02,19,13.20
2022,07,01,02,20,13.10
2022,07,01,02,21,13.10
2022,07,01,02,22,13.10
2022,07,01,02,23,13.10
2022,07,01,02,24,13.10
2022,07,01,02,25,13.10
2022,07,01,02,26,13.00
2022,07,01,02,27,13.00
2022,07,01,02,28,13.00
2022,07,01,02,29,13.00
2022,07,01,02,30,13.00
2022,07,01,02,31,13.00
2022,07,01,02,32,13.00
2022,07,01,02,33,13.00
2022,07,01,02,34,13.00
2022,07,01,02,35,13.00
2022,07,01,02,36,13.00
2022,07,01,02,37,13.00
2022,07,01,02,38,13.10
2022,07,01,02,39,13.10
2022,07,01,02,40,13.10
2022,07,01,02,41,13.10
2022,07,01,02,42,13.10
2022,07,01,02,43,13.10
2022,07,01,02,44,13.10
2022,07,01,02,45,13.10
2022,07,01,02,46,13.10
2022,07,01,02,47,13.10
2022,07,01,02,48,13.10
2022,07,01,02,49,13.10
2022,07,01,02,50,13.10
2022,07,01,02,51,13.10
2022,07,01,02,52,13.10
2022,07,01,02,53,13.10
2022,07,01,02,54,13.10
2022,07,01,02,55,13.00
2022,07,01,02,56,13.00
2022,07,01,02,57,13.00
2022,07,01,02,58,13.00
2022,07,01,02,59,13.00
2022,07,01,03,00,13.00
2022,07,01,03,01,12.90
2022,07,01,03,02,12.90
2022,07,01,03,03,12.90
2022,07,01,03,04,12.90
2022,07,01,03,05,12.90
2022,07,01,03,06,12.90
2022,07,01,03,07,12.90
2022,07,01,03,08,12.80
2022,07,01,03,09,12.80
2022,07,01,03,10,12.80
2022,07,01,03,11,12.80
2022,07,01,03,12,12.80
2022,07,01,03,13,12.80
2022,07,01,03,14,12.80
2022,07,01,03,15,12.80
2022,07,01,03,16,12.80
2022,07,01,03,17,12.80
2022,07,01,03,18,12.80
2022,07,01,03,19,12.80
2022,07,01,03,20,12.80
2022,07,01,03,21,12.70
2022,07,01,03,22,12.70
2022,07,01,03,23,12.70
2022,07,01,03,24,12.70
2022,07,01,03,25,12.70
2022,07,01,03,26,12.70
2022,07,01,03,27,12.70
2022,07,01,03,28,12.70
2022,07,01,03,29,12.70
2022,07,01,03,30,12.70
2022,07,01,03,31,12.70
2022,07,01,03,32,12.70
2022,07,01,03,33,12.70
2022,07,01,03,34,12.60
2022,07,01,03,35,12.60
2022,07,01,03,36,12.60
2022,07,01,03,37,12.60
2022,07,01,03,38,12.60
2022,07,01,03,39,12.60
2022,07,01,03,40,12.60
2022,07,01,03,41,12.60
2022,07,01,03,42,12.60
2022,07,01,03,43,12.60
2022,07,01,03,44,12.60
2022,07,01,03,45,12.60
2022,07,01,03,46,12.60
2022,07,01,03,47,12.60
2022,07,01,03,48,12.60
2022,07,01,03,49,12.70
2022,07,01,03,50,12.70
2022,07,01,03,51,12.70
2022,07,01,03,52,12.70
2022,07,01,03,53,12.60
2022,07,01,03,54,12.70
2022,07,01,03,55,12.70
2022,07,01,03,56,12.70
2022,07,01,03,57,12.70
2022,07,01,03,58,12.70
2022,07,01,03,59,12.70
2022,07,01,04,00,12.70
2022,07,01,04,01,12.70
2022,07,01,04,02,12.70
2022,07,01,04,03,12.70
2022,07,01,04,04,12.70
2022,07,01,04,05,12.70
2022,07,01,04,06,12.70
2022,07,01,04,07,12.70
2022,07,01,04,08,12.70
2022,07,01,04,09,12.70
2022,07,01,04,10,12.70
2022,07,01,04,11,12.70
2022,07,01,04,12,12.70
2022,07,01,04,13,12.70
2022,07,01,04,14,12.70
2022,07,01,04,15,12.70
2022,07,01,04,16,12.70
2022,07,01,04,17,12.70
2022,07,01,04,18,12.70
2022,07,01,04,19,12.70
2022,07,01,04,20,12.70
2022,07,01,04,21,12.70
2022,07,01,04,22,12.70
2022,07,01,04,23,12.60
2022,07,01,04,24,12.70
2022,07,01,04,25,12.70
2022,07,01,04,26,12.70
2022,07,01,04,27,12.70
2022,07,01,04,28,12.70
2022,07,01,04,29,12.70
2022,07,01,04,30,12.70
2022,07,01,04,31,12.70
2022,07,01,04,32,12.70
2022,07,01,04,33,12.70
2022,07,01,04,34,12.70
2022,07,01,04,35,12.70
2022,07,01,04,36,12.70
2022,07,01,04,37,12.70
2022,07,01,04,38,12.70
2022,07,01,04,39,12.70
2022,07,01,04,40,12.70
2022,07,01,04,41,12.70
2022,07,01,04,42,12.70
2022,07,01,04,43,12.70
2022,07,01,04,44,12.60
2022,07,01,04,45,12.60
2022,07,01,04,46,12.60
2022,07,01,04,47,12.60
2022,07,01,04,48,12.60
2022,07,01,04,49,12.60
2022,07,01,04,50,12.60
2022,07,01,04,51,12.60
2022,07,01,04,52,12.60
2022,07,01,04,53,12.60
2022,07,01,04,54,12.50
2022,07,01,04,55,12.50
2022,07,01,04,56,12.50
2022,07,01,04,57,12.50
2022,07,01,04,58,12.40
2022,07,01,04,59,12.40
2022,07,01,05,00,12.40
2022,07,01,05,01,12.30
2022,07,01,05,02,12.30
2022,07,01,05,03,12.30
2022,07,01,05,04,12.30
2022,07,01,05,05,12.30
2022,07,01,05,06,12.20
2022,07,01,05,07,12.20
2022,07,01,05,08,12.20
2022,07,01,05,09,12.20
2022,07,01,05,10,12.30
2022,07,01,05,11,12.20
2022,07,01,05,12,12.30
2022,07,01,05,13,12.30
2022,07,01,05,14,12.30
2022,07,01,05,15,12.30
2022,07,01,05,16,12.30
2022,07,01,05,17,12.30
2022,07,01,05,18,12.30
2022,07,01,05,19,12.20
2022,07,01,05,20,12.20
2022,07,01,05,21,12.20
2022,07,01,05,22,12.20
2022,07,01,05,23,12.20
2022,07,01,05,24,12.20
2022,07,01,05,25,12.20
2022,07,01,05,26,12.20
2022,07,01,05,27,12.20
2022,07,01,05,28,12.20
2022,07,01,05,29,12.30
2022,07,01,05,30,12.30
2022,07,01,05,31,12.30
2022,07,01,05,32,12.30
2022,07,01,05,33,12.30
2022,07,01,05,34,12.30
2022,07,01,05,35,12.30
2022,07,01,05,36,12.30
2022,07,01,05,37,12.30
2022,07,01,05,38,12.40
2022,07,01,05,39,12.40
2022,07,01,05,40,12.40
2022,07,01,05,41,12.50
2022,07,01,05,42,12.50
2022,07,01,05,43,12.60
2022,07,01,05,44,12.60
2022,07,01,05,45,12.60
2022,07,01,05,46,12.60
2022,07,01,05,47,12.70
2022,07,01,05,48,12.70
2022,07,01,05,49,12.80
2022,07,01,05,50,12.80
2022,07,01,05,51,12.80
2022,07,01,05,52,12.90
2022,07,01,05,53,12.90
2022,07,01,05,54,13.00
2022,07,01,05,55,13.00
2022,07,01,05,56,13.10
2022,07,01,05,57,13.10
2022,07,01,05,58,13.10
2022,07,01,05,59,13.10
2022,07,01,06,00,13.20
2022,07,01,06,01,13.20
2022,07,01,06,02,13.30
2022,07,01,06,03,13.30
2022,07,01,06,04,13.40
2022,07,01,06,05,13.40
2022,07,01,06,06,13.40
2022,07,01,06,07,13.50
2022,07,01,06,08,13.50
2022,07,01,06,09,13.60
2022,07,01,06,10,13.60
2022,07,01,06,11,13.70
2022,07,01,06,12,13.70
2022,07,01,06,13,13.70
2022,07,01,06,14,13.80
2022,07,01,06,15,13.80
2022,07,01,06,16,13.80
2022,07,01,06,17,13.90
2022,07,01,06,18,13.90
2022,07,01,06,19,13.90
2022,07,01,06,20,14.00
2022,07,01,06,21,14.00
2022,07,01,06,22,14.10
2022,07,01,06,23,14.10
2022,07,01,06,24,14.20
2022,07,01,06,25,14.20
2022,07,01,06,26,14.20
2022,07,01,06,27,14.30
2022,07,01,06,28,14.30
2022,07,01,06,29,14.30
2022,07,01,06,30,14.30
2022,07,01,06,31,14.40
2022,07,01,06,32,14.40
2022,07,01,06,33,14.40
2022,07,01,06,34,14.40
2022,07,01,06,35,14.40
2022,07,01,06,36,14.40
2022,07,01,06,37,14.40
2022,07,01,06,38,14.40
2022,07,01,06,39,14.40
2022,07,01,06,40,14.40
2022,07,01,06,41,14.40
2022,07,01,06,42,14.30
2022,07,01,06,43,14.30
2022,07,01,06,44,14.20
2022,07,01,06,45,14.20
2022,07,01,06,46,14.10
2022,07,01,06,47,14.00
2022,07,01,06,48,14.00
2022,07,01,06,49,14.00
2022,07,01,06,50,14.00
2022,07,01,06,51,13.90
2022,07,01,06,52,13.90
2022,07,01,06,53,13.90
2022,07,01,06,54,13.90
2022,07,01,06,55,13.80
2022,07,01,06,56,13.90
2022,07,01,06,57,13.80
2022,07,01,06,58,13.80
2022,07,01,06,59,13.80
2022,07,01,07,00,13.80
2022,07,01,07,01,13.80
2022,07,01,07,02,13.80
2022,07,01,07,03,13.70
2022,07,01,07,04,13.70
2022,07,01,07,05,13.70
2022,07,01,07,06,13.70
2022,07,01,07,07,13.70
2022,07,01,07,08,13.60
2022,07,01,07,09,13.60
2022,07,01,07,10,13.60
2022,07,01,07,11,13.60
2022,07,01,07,12,13.50
2022,07,01,07,13,13.50
2022,07,01,07,14,13.50
2022,07,01,07,15,13.50
2022,07,01,07,16,13.40
2022,07,01,07,17,13.40
2022,07,01,07,18,13.40
2022,07,01,07,19,13.40
2022,07,01,07,20,13.40
2022,07,01,07,21,13.40
2022,07,01,07,22,13.40
2022,07,01,07,23,13.40
2022,07,01,07,24,13.40
2022,07,01,07,25,13.40
2022,07,01,07,26,13.40
2022,07,01,07,27,13.40
2022,07,01,07,28,13.40
2022,07,01,07,29,13.40
2022,07,01,07,30,13.40
2022,07,01,07,31,13.40
2022,07,01,07,32,13.40
2022,07,01,07,33,13.40
2022,07,01,07,34,13.40
2022,07,01,07,35,13.50
2022,07,01,07,36,13.40
2022,07,01,07,37,13.40
2022,07,01,07,38,13.40
2022,07,01,07,39,13.50
2022,07,01,07,40,13.50
2022,07,01,07,41,13.50
2022,07,01,07,42,13.50
2022,07,01,07,43,13.50
2022,07,01,07,44,13.50
2022,07,01,07,45,13.50
2022,07,01,07,46,13.50
2022,07,01,07,47,13.50
2022,07,01,07,48,13.60
2022,07,01,07,49,13.60
2022,07,01,07,50,13.60
2022,07,01,07,51,13.60
2022,07,01,07,52,13.60
2022,07,01,07,53,13.60
2022,07,01,07,54,13.60
2022,07,01,07,55,13.60
2022,07,01,07,56,13.60
2022,07,01,07,57,13.60
2022,07,01,07,58,13.60
2022,07,01,07,59,13.60
2022,07,01,08,00,13.60
2022,07,01,08,01,13.70
2022,07,01,08,02,13.70
2022,07,01,08,03,13.70
2022,07,01,08,04,13.70
2022,07,01,08,05,13.70
2022,07,01,08,06,13.60
2022,07,01,08,07,13.60
2022,07,01,08,08,13.60
2022,07,01,08,09,13.60
2022,07,01,08,10,13.60
2022,07,01,08,11,13.50
2022,07,01,08,12,13.50
2022,07,01,08,13,13.50
2022,07,01,08,14,13.40
2022,07,01,08,15,13.40
2022,07,01,08,16,13.40
2022,07,01,08,17,13.40
2022,07,01,08,18,13.40
2022,07,01,08,19,13.40
2022,07,01,08,20,13.30
2022,07,01,08,21,13.30
2022,07,01,08,22,13.30
2022,07,01,08,23,13.30
2022,07,01,08,24,13.30
2022,07,01,08,25,13.30
2022,07,01,08,26,13.30
2022,07,01,08,27,13.30
2022,07,01,08,28,13.30
2022,07,01,08,29,13.30
2022,07,01,08,30,13.20
2022,07,01,08,31,13.20
2022,07,01,08,32,13.20
2022,07,01,08,33,13.20
2022,07,01,08,34,13.20
2022,07,01,08,35,13.20
2022,07,01,08,36,13.20
2022,07,01,08,37,13.20
2022,07,01,08,38,13.10
2022,07,01,08,39,13.10
2022,07,01,08,40,13.10
2022,07,01,08,41,13.10
2022,07,01,08,42,13.10
2022,07,01,08,43,13.10
2022,07,01,08,44,13.10
2022,07,01,08,45,13.10
2022,07,01,08,46,13.10
2022,07,01,08,47,13.10
2022,07,01,08,48,13.10
2022,07,01,08,49,13.10
2022,07,01,08,50,13.10
2022,07,01,08,51,13.10
2022,07,01,08,52,13.10
2022,07,01,08,53,13.10
2022,07,01,08,54,13.10
2022,07,01,08,55,13.10
2022,07,01,08,56,13.10
2022,07,01,08,57,13.10
2022,07,01,08,58,13.10
2022,07,01,08,59,13.20
2022,07,01,09,00,13.20
2022,07,01,09,01,13.20
2022,07,01,09,02,13.20
2022,07,01,09,03,13.20
2022,07,01,09,04,13.20
2022,07,01,09,05,13.20
2022,07,01,09,06,13.20
2022,07,01,09,07,13.20
2022,07,01,09,08,13.20
2022,07,01,09,09,13.20
2022,07,01,09,10,13.20
2022,07,01,09,11,13.20
2022,07,01,09,12,13.20
2022,07,01,09,13,13.20
2022,07,01,09,14,13.20
2022,07,01,09,15,13.20
2022,07,01,09,16,13.20
2022,07,01,09,17,13.20
2022,07,01,09,18,13.20
2022,07,01,09,19,13.30
2022,07,01,09,20,13.20
2022,07,01,09,21,13.30
2022,07,01,09,22,13.20
2022,07,01,09,23,13.20
2022,07,01,09,24,13.20
2022,07,01,09,25,13.20
2022,07,01,09,26,13.20
2022,07,01,09,27,13.20
2022,07,01,09,28,13.20
2022,07,01,09,29,13.20
2022,07,01,09,30,13.20
2022,07,01,09,31,13.20
2022,07,01,09,32,13.10
2022,07,01,09,33,13.20
2022,07,01,09,34,13.20
2022,07,01,09,35,13.20
2022,07,01,09,36,13.20
2022,07,01,09,37,13.20
2022,07,01,09,38,13.20
2022,07,01,09,39,13.20
2022,07,01,09,40,13.30
2022,07,01,09,41,13.30
2022,07,01,09,42,13.30
2022,07,01,09,43,13.30
2022,07,01,09,44,13.20
2022,07,01,09,45,13.20
2022,07,01,09,46,13.30
2022,07,01,09,47,13.30
2022,07,01,09,48,13.30
2022,07,01,09,49,13.30
2022,07,01,09,50,13.30
2022,07,01,09,51,13.30
2022,07,01,09,52,13.30
2022,07,01,09,53,13.30
2022,07,01,09,54,13.30
2022,07,01,09,55,13.30
2022,07,01,09,56,13.30
2022,07,01,09,57,13.30
2022,07,01,09,58,13.30
2022,07,01,09,59,13.30
2022,07,01,10,00,13.30
2022,07,01,10,01,13.20
2022,07,01,10,02,13.20
2022,07,01,10,03,13.20
2022,07,01,10,04,13.20
2022,07,01,10,05,13.20
2022,07,01,10,06,13.20
2022,07,01,10,07,13.20
2022,07,01,10,08,13.20
2022,07,01,10,09,13.20
2022,07,01,10,10,13.20
2022,07,01,10,11,13.20
2022,07,01,10,12,13.20
2022,07,01,10,13,13.20
2022,07,01,10,14,13.20
2022,07,01,10,15,13.20
2022,07,01,10,16,13.20
2022,07,01,10,17,13.20
2022,07,01,10,18,13.20
2022,07,01,10,19,13.20
2022,07,01,10,20,13.20
2022,07,01,10,21,13.20
2022,07,01,10,22,13.20
2022,07,01,10,23,13.20
2022,07,01,10,24,13.30
2022,07,01,10,25,13.30
2022,07,01,10,26,13.30
2022,07,01,10,27,13.30
2022,07,01,10,28,13.30
2022,07,01,10,29,13.30
2022,07,01,10,30,13.30
2022,07,01,10,31,13.30
2022,07,01,10,32,13.30
2022,07,01,10,33,13.30
2022,07,01,10,34,13.30
2022,07,01,10,35,13.30
2022,07,01,10,36,13.40
2022,07,01,10,37,13.40
2022,07,01,10,38,13.40
2022,07,01,10,39,13.50
2022,07,01,10,40,13.50
2022,07,01,10,41,13.60
2022,07,01,10,42,13.60
2022,07,01,10,43,13.60
2022,07,01,10,44,13.60
2022,07,01,10,45,13.60
2022,07,01,10,46,13.60
2022,07,01,10,47,13.60
2022,07,01,10,48,13.60
2022,07,01,10,49,13.60
2022,07,01,10,50,13.60
2022,07,01,10,51,13.60
2022,07,01,10,52,13.70
2022,07,01,10,53,13.70
2022,07,01,10,54,13.70
2022,07,01,10,55,13.70
2022,07,01,10,56,13.70
2022,07,01,10,57,13.70
2022,07,01,10,58,13.70
2022,07,01,10,59,13.70
2022,07,01,11,00,13.70
2022,07,01,11,01,13.70
2022,07,01,11,02,13.80
2022,07,01,11,03,13.90
2022,07,01,11,04,13.90
2022,07,01,11,05,13.90
2022,07,01,11,06,14.00
2022,07,01,11,07,14.10
2022,07,01,11,08,14.20
2022,07,01,11,09,14.30
2022,07,01,11,10,14.30
2022,07,01,11,11,14.40
2022,07,01,11,12,14.50
2022,07,01,11,13,14.50
2022,07,01,11,14,14.60
2022,07,01,11,15,14.60
2022,07,01,11,16,14.60
2022,07,01,11,17,14.60
2022,07,01,11,18,14.60
2022,07,01,11,19,14.70
2022,07,01,11,20,14.70
2022,07,01,11,21,14.70
2022,07,01,11,22,14.70
2022,07,01,11,23,14.70
2022,07,01,11,24,14.70
2022,07,01,11,25,14.70
2022,07,01,11,26,14.70
2022,07,01,11,27,14.70
2022,07,01,11,28,14.70
2022,07,01,11,29,14.70
2022,07,01,11,30,14.70
2022,07,01,11,31,14.70
2022,07,01,11,32,14.80
2022,07,01,11,33,14.80
2022,07,01,11,34,14.80
2022,07,01,11,35,14.80
2022,07,01,11,36,14.80
2022,07,01,11,37,14.80
2022,07,01,11,38,14.70
2022,07,01,11,39,14.70
2022,07,01,11,40,14.60
2022,07,01,11,41,14.60
2022,07,01,11,42,14.60
2022,07,01,11,43,14.60
2022,07,01,11,44,14.60
2022,07,01,11,45,14.60
2022,07,01,11,46,14.60
2022,07,01,11,47,14.50
2022,07,01,11,48,14.40
2022,07,01,11,49,14.40
2022,07,01,11,50,14.30
2022,07,01,11,51,14.30
2022,07,01,11,52,14.30
2022,07,01,11,53,14.30
2022,07,01,11,54,14.20
2022,07,01,11,55,14.20
2022,07,01,11,56,14.20
2022,07,01,11,57,14.20
2022,07,01,11,58,14.20
2022,07,01,11,59,14.20
2022,07,01,12,00,14.20
2022,07,01,12,01,14.20
2022,07,01,12,02,14.10
2022,07,01,12,03,14.10
2022,07,01,12,04,14.10
2022,07,01,12,05,14.10
2022,07,01,12,06,14.00
2022,07,01,12,07,14.00
2022,07,01,12,08,14.00
2022,07,01,12,09,14.00
2022,07,01,12,10,13.90
2022,07,01,12,11,13.90
2022,07,01,12,12,13.90
2022,07,01,12,13,13.90
2022,07,01,12,14,13.90
2022,07,01,12,15,13.90
2022,07,01,12,16,14.00
2022,07,01,12,17,14.00
2022,07,01,12,18,14.00
2022,07,01,12,19,14.00
2022,07,01,12,20,14.10
2022,07,01,12,21,14.10
2022,07,01,12,22,14.10
2022,07,01,12,23,14.10
2022,07,01,12,24,14.10
2022,07,01,12,25,14.10
2022,07,01,12,26,14.10
2022,07,01,12,27,14.10
2022,07,01,12,28,14.10
2022,07,01,12,29,14.10
2022,07,01,12,30,14.00
2022,07,01,12,31,14.00
2022,07,01,12,32,14.00
2022,07,01,12,33,14.00
2022,07,01,12,34,14.00
2022,07,01,12,35,14.00
2022,07,01,12,36,14.00
2022,07,01,12,37,14.00
2022,07,01,12,38,14.00
2022,07,01,12,39,14.00
2022,07,01,12,40,14.10
2022,07,01,12,41,14.10
2022,07,01,12,42,14.10
2022,07,01,12,43,14.10
2022,07,01,12,44,14.10
2022,07,01,12,45,14.10
2022,07,01,12,46,14.20
2022,07,01,12,47,14.20
2022,07,01,12,48,14.20
2022,07,01,12,49,14.20
2022,07,01,12,50,14.20
2022,07,01,12,51,14.20
2022,07,01,12,52,14.30
2022,07,01,12,53,14.30
2022,07,01,12,54,14.30
2022,07,01,12,55,14.30
2022,07,01,12,56,14.30
2022,07,01,12,57,14.30
2022,07,01,12,58,14.30
2022,07,01,12,59,14.30
2022,07,01,13,00,14.30
2022,07,01,13,01,14.30
2022,07,01,13,02,14.30
2022,07,01,13,03,14.30
2022,07,01,13,04,14.30
2022,07,01,13,05,14.30
2022,07,01,13,06,14.30
2022,07,01,13,07,14.30
2022,07,01,13,08,14.30
2022,07,01,13,09,14.30
2022,07,01,13,10,14.30
2022,07,01,13,11,14.40
2022,07,01,13,12,14.40
2022,07,01,13,13,14.40
2022,07,01,13,14,14.40
2022,07,01,13,15,14.40
2022,07,01,13,16,14.40
2022,07,01,13,17,14.50
2022,07,01,13,18,14.50
2022,07,01,13,19,14.50
2022,07,01,13,20,14.50
2022,07,01,13,21,14.50
2022,07,01,13,22,14.50
2022,07,01,13,23,14.50
2022,07,01,13,24,14.50
2022,07,01,13,25,14.50
2022,07,01,13,26,14.50
2022,07,01,13,27,14.50
2022,07,01,13,28,14.50
2022,07,01,13,29,14.60
2022,07,01,13,30,14.60
2022,07,01,13,31,14.70
2022,07,01,13,32,14.70
2022,07,01,13,33,14.70
2022,07,01,13,34,14.70
2022,07,01,13,35,14.70
2022,07,01,13,36,14.60
2022,07,01,13,37,14.60
2022,07,01,13,38,14.60
2022,07,01,13,39,14.50
2022,07,01,13,40,14.50
2022,07,01,13,41,14.40
2022,07,01,13,42,14.40
2022,07,01,13,43,14.40
2022,07,01,13,44,14.30
2022,07,01,13,45,14.30
2022,07,01,13,46,14.20
2022,07,01,13,47,14.20
2022,07,01,13,48,14.20
2022,07,01,13,49,14.20
2022,07,01,13,50,14.10
2022,07,01,13,51,14.10
2022,07,01,13,52,14.10
2022,07,01,13,53,14.10
2022,07,01,13,54,14.10
2022,07,01,13,55,14.10
2022,07,01,13,56,14.10
2022,07,01,13,57,14.10
2022,07,01,13,58,14.10
2022,07,01,13,59,14.10
2022,07,01,14,00,14.10
2022,07,01,14,01,14.10
2022,07,01,14,02,14.10
2022,07,01,14,03,14.10
2022,07,01,14,04,14.10
2022,07,01,14,05,14.10
2022,07,01,14,06,14.20
2022,07,01,14,07,14.10
2022,07,01,14,08,14.20
2022,07,01,14,09,14.20
2022,07,01,14,10,14.20
2022,07,01,14,11,14.30
2022,07,01,14,12,14.40
2022,07,01,14,13,14.60
2022,07,01,14,14,14.80
2022,07,01,14,15,15.00
2022,07,01,14,16,15.20
2022,07,01,14,17,15.30
2022,07,01,14,18,15.40
2022,07,01,14,19,15.50
2022,07,01,14,20,15.50
2022,07,01,14,21,15.40
2022,07,01,14,22,15.40
2022,07,01,14,23,15.40
2022,07,01,14,24,15.40
2022,07,01,14,25,15.30
2022,07,01,14,26,15.30
2022,07,01,14,27,15.30
2022,07,01,14,28,15.30
2022,07,01,14,29,15.20
2022,07,01,14,30,15.20
2022,07,01,14,31,15.20
2022,07,01,14,32,15.20
2022,07,01,14,33,15.10
2022,07,01,14,34,15.10
2022,07,01,14,35,15.10
2022,07,01,14,36,15.10
2022,07,01,14,37,15.10
2022,07,01,14,38,15.10
2022,07,01,14,39,15.00
2022,07,01,14,40,15.00
2022,07,01,14,41,15.00
2022,07,01,14,42,14.90
2022,07,01,14,43,14.90
2022,07,01,14,44,14.90
2022,07,01,14,45,14.90
2022,07,01,14,46,14.90
2022,07,01,14,47,14.90
2022,07,01,14,48,14.90
2022,07,01,14,49,14.90
2022,07,01,14,50,14.90
2022,07,01,14,51,14.90
2022,07,01,14,52,14.90
2022,07,01,14,53,14.90
2022,07,01,14,54,14.90
2022,07,01,14,55,14.90
2022,07,01,14,56,14.90
2022,07,01,14,57,14.90
2022,07,01,14,58,14.90
2022,07,01,14,59,14.90
2022,07,01,15,00,14.90
2022,07,01,15,01,14.90
2022,07,01,15,02,14.80
2022,07,01,15,03,14.80
2022,07,01,15,04,14.80
2022,07,01,15,05,14.80
2022,07,01,15,06,14.80
2022,07,01,15,07,14.80
2022,07,01,15,08,14.80
2022,07,01,15,09,14.70
2022,07,01,15,10,14.80
2022,07,01,15,11,14.70
2022,07,01,15,12,14.70
2022,07,01,15,13,14.80
2022,07,01,15,14,14.80
2022,07,01,15,15,14.80
2022,07,01,15,16,14.80
2022,07,01,15,17,14.90
2022,07,01,15,18,14.90
2022,07,01,15,19,14.90
2022,07,01,15,20,14.90
2022,07,01,15,21,14.90
2022,07,01,15,22,14.90
2022,07,01,15,23,14.90
2022,07,01,15,24,14.90
2022,07,01,15,25,14.90
2022,07,01,15,26,14.90
2022,07,01,15,27,14.90
2022,07,01,15,28,14.90
2022,07,01,15,29,14.90
2022,07,01,15,30,14.90
2022,07,01,15,31,14.90
2022,07,01,15,32,14.90
2022,07,01,15,33,14.90
2022,07,01,15,34,14.90
2022,07,01,15,35,14.90
2022,07,01,15,36,14.90
2022,07,01,15,37,14.90
2022,07,01,15,38,14.90
2022,07,01,15,39,14.90
2022,07,01,15,40,14.80
2022,07,01,15,41,14.80
2022,07,01,15,42,14.80
2022,07,01,15,43,14.80
2022,07,01,15,44,14.80
2022,07,01,15,45,14.70
2022,07,01,15,46,14.60
2022,07,01,15,47,14.60
2022,07,01,15,48,14.60
2022,07,01,15,49,14.50
2022,07,01,15,50,14.50
2022,07,01,15,51,14.50
2022,07,01,15,52,14.50
2022,07,01,15,53,14.60
2022,07,01,15,54,14.60
2022,07,01,15,55,14.60
2022,07,01,15,56,14.60
2022,07,01,15,57,14.60
2022,07,01,15,58,14.70
2022,07,01,15,59,14.60
2022,07,01,16,00,14.60
2022,07,01,16,01,14.60
2022,07,01,16,02,14.60
2022,07,01,16,03,14.60
2022,07,01,16,04,14.60
2022,07,01,16,05,14.60
2022,07,01,16,06,14.60
2022,07,01,16,07,14.60
2022,07,01,16,08,14.60
2022,07,01,16,09,14.60
2022,07,01,16,10,14.60
2022,07,01,16,11,14.70
2022,07,01,16,12,14.70
2022,07,01,16,13,14.70
2022,07,01,16,14,14.70
2022,07,01,16,15,14.70
2022,07,01,16,16,14.70
2022,07,01,16,17,14.70
2022,07,01,16,18,14.80
2022,07,01,16,19,14.80
2022,07,01,16,20,14.80
2022,07,01,16,21,14.80
2022,07,01,16,22,14.90
2022,07,01,16,23,14.90
2022,07,01,16,24,14.90
2022,07,01,16,25,15.00
2022,07,01,16,26,15.00
2022,07,01,16,27,15.00
2022,07,01,16,28,15.00
2022,07,01,16,29,15.10
2022,07,01,16,30,15.10
2022,07,01,16,31,15.10
2022,07,01,16,32,15.10
2022,07,01,16,33,15.10
2022,07,01,16,34,15.10
2022,07,01,16,35,15.10
2022,07,01,16,36,15.10
2022,07,01,16,37,15.20
2022,07,01,16,38,15.20
2022,07,01,16,39,15.20
2022,07,01,16,40,15.20
2022,07,01,16,41,15.20
2022,07,01,16,42,15.30
2022,07,01,16,43,15.30
2022,07,01,16,44,15.30
2022,07,01,16,45,15.30
2022,07,01,16,46,15.30
2022,07,01,16,47,15.40
2022,07,01,16,48,15.40
2022,07,01,16,49,15.40
2022,07,01,16,50,15.40
2022,07,01,16,51,15.40
2022,07,01,16,52,15.40
2022,07,01,16,53,15.40
2022,07,01,16,54,15.30
2022,07,01,16,55,15.30
2022,07,01,16,56,15.30
2022,07,01,16,57,15.30
2022,07,01,16,58,15.30
2022,07,01,16,59,15.20
2022,07,01,17,00,15.20
2022,07,01,17,01,15.20
2022,07,01,17,02,15.20
2022,07,01,17,03,15.20
2022,07,01,17,04,15.20
2022,07,01,17,05,15.30
2022,07,01,17,06,15.30
2022,07,01,17,07,15.30
2022,07,01,17,08,15.30
2022,07,01,17,09,15.30
2022,07,01,17,10,15.30
2022,07,01,17,11,15.30
2022,07,01,17,12,15.30
2022,07,01,17,13,15.30
2022,07,01,17,14,15.30
2022,07,01,17,15,15.30
2022,07,01,17,16,15.30
2022,07,01,17,17,15.40
2022,07,01,17,18,15.40
2022,07,01,17,19,15.40